Weather History for KIDP - February, 2013

Change the Weather History Date:

Tuesday, February 19, 2013

  Actual Average (KCNU) Record (KCNU)
Temperature  
Mean Temperature 34 °F 39 °F  
Max Temperature 44 °F 49 °F 74 °F (1930)
Min Temperature 23 °F 28 °F -1 °F (1903)
Degree Days  
Heating Degree Days 32 26  
Month to date heating degree days 551  
Since 1 July heating degree days 3350  
Cooling Degree Days 0 0  
Month to date cooling degree days 0  
Year to date cooling degree days 0  
Moisture  
Dew Point 19 °F    
Average Humidity 59    
Maximum Humidity 86    
Minimum Humidity 34    
Precipitation  
Precipitation 0.00 in 0.08 in 1.65 in (1994)
Month to date precipitation 1.18  
Year to date precipitation 2.44  
Sea Level Pressure  
Sea Level Pressure 30.27 in    
Wind  
Wind Speed 6 mph (NNW)    
Max Wind Speed 14 mph    
Max Gust Speed 22 mph    
Visibility 10 miles    
Events      
T = Trace of Precipitation, MM = Missing Value Source: NWS Daily Summary

Daily Weather History Graph

Daily Weather History Graph

Search for Another Location

Airport or City:

Trip Planner

Search our weather history database for the weather conditions in past years. The results will help you decide how hot, cold, wet, or windy it might be!

Date:

Astronomy

Feb. 19, 2013 Rise Set
Actual Time 7:06 AM CST 6:07 PM CST
Civil Twilight 6:40 AM CST 6:33 PM CST
Nautical Twilight 6:10 AM CST 7:04 PM CST
Astronomical Twilight 5:39 AM CST 7:34 PM CST
Moon 12:44 PM CST (2/19) 2:35 AM CST (2/19)
Length of Visible Light 11h 53m
Length of Day
11h 00m
Waxing Gibbous, 67% of the Moon is Illuminated
Feb 19
Waxing Gibbous
Feb 25
Full
Mar 4
Last Quarter
Mar 11
New
Mar 19
First Quarter

Hourly Weather History & Observations

Time (CST) Temp. Windchill Dew Point Humidity Pressure Visibility Wind Dir Wind Speed Gust Speed Precip Events Conditions
12:15 AM 32.0 °F 26.4 °F 23.0 °F 69% 30.16 in 10.0 mi NNW 5.8 mph - N/A   Clear
12:35 AM 32.0 °F 26.4 °F 23.0 °F 69% 30.17 in 10.0 mi NNW 5.8 mph - N/A   Clear
12:55 AM 30.2 °F - 23.0 °F 75% 30.18 in 10.0 mi Calm Calm - N/A   Clear
1:15 AM 30.2 °F - 23.0 °F 75% 30.19 in 10.0 mi Calm Calm - N/A   Clear
1:35 AM 30.2 °F - 23.0 °F 75% 30.18 in 10.0 mi Calm Calm - N/A   Clear
1:55 AM 30.2 °F - 26.6 °F 86% 30.18 in 10.0 mi Calm Calm - N/A   Clear
2:15 AM 28.4 °F - 23.0 °F 80% 30.18 in 10.0 mi Calm Calm - N/A   Clear
2:35 AM 28.4 °F - 23.0 °F 80% 30.18 in 10.0 mi Calm Calm - N/A   Clear
2:55 AM 28.4 °F 24.6 °F 24.8 °F 86% 30.18 in 10.0 mi NNW 3.5 mph - N/A   Clear
3:15 AM 26.6 °F 22.6 °F 23.0 °F 86% 30.18 in 10.0 mi NW 3.5 mph - N/A   Clear
3:35 AM 26.6 °F 22.6 °F 21.2 °F 80% 30.19 in 10.0 mi WNW 3.5 mph - N/A   Clear
3:55 AM 28.4 °F 23.3 °F 23.0 °F 80% 30.19 in 10.0 mi WNW 4.6 mph - N/A   Clear
4:15 AM 26.6 °F 21.2 °F 23.0 °F 86% 30.20 in 10.0 mi WSW 4.6 mph - N/A   Clear
4:35 AM 26.6 °F 19.1 °F 21.2 °F 80% 30.20 in 10.0 mi WNW 6.9 mph - N/A   Clear
4:55 AM 26.6 °F 21.2 °F 21.2 °F 80% 30.21 in 10.0 mi West 4.6 mph - N/A   Clear
5:15 AM 26.6 °F 19.1 °F 21.2 °F 80% 30.22 in 10.0 mi West 6.9 mph - N/A   Clear
5:55 AM 26.6 °F 20.0 °F 21.2 °F 80% 30.23 in 10.0 mi WNW 5.8 mph - N/A   Clear
6:15 AM 26.6 °F 20.0 °F 21.2 °F 80% 30.23 in 10.0 mi West 5.8 mph - N/A   Clear
6:35 AM 23.0 °F 15.8 °F 19.4 °F 86% 30.24 in 10.0 mi WNW 5.8 mph - N/A   Clear
6:55 AM 24.8 °F 20.5 °F 19.4 °F 80% 30.25 in 10.0 mi West 3.5 mph - N/A   Clear
7:15 AM 24.8 °F 19.1 °F 21.2 °F 86% 30.25 in 10.0 mi WNW 4.6 mph - N/A   Clear
7:35 AM 26.6 °F 20.0 °F 21.2 °F 80% 30.27 in 10.0 mi WNW 5.8 mph - N/A   Clear
7:55 AM 28.4 °F 19.7 °F 21.2 °F 74% 30.28 in 10.0 mi NW 9.2 mph - N/A   Clear
8:15 AM 30.2 °F 22.6 °F 21.2 °F 69% 30.30 in 10.0 mi NNW 8.1 mph - N/A   Clear
8:35 AM 30.2 °F 20.2 °F 23.0 °F 75% 30.30 in 10.0 mi North 12.7 mph - N/A   Clear
8:55 AM 32.0 °F 22.5 °F 23.0 °F 69% 30.31 in 10.0 mi NNW 12.7 mph - N/A   Clear
9:15 AM 32.0 °F 22.5 °F 21.2 °F 64% 30.32 in 10.0 mi NNW 12.7 mph - N/A   Clear
9:35 AM 33.8 °F 25.3 °F 21.2 °F 60% 30.33 in 10.0 mi NNW 11.5 mph - N/A   Clear
9:55 AM 33.8 °F 25.8 °F 21.2 °F 60% 30.33 in 10.0 mi NNW 10.4 mph - N/A   Clear
10:15 AM 33.8 °F 25.8 °F 19.4 °F 56% 30.34 in 10.0 mi North 10.4 mph - N/A   Clear
10:35 AM 35.6 °F 27.1 °F 19.4 °F 52% 30.35 in 10.0 mi North 12.7 mph - N/A   Clear
10:55 AM 35.6 °F 26.6 °F 19.4 °F 52% 30.35 in 10.0 mi North 13.8 mph 17.3 mph N/A   Clear
11:15 AM 37.4 °F 29.8 °F 19.4 °F 48% 30.35 in 10.0 mi North 11.5 mph 17.3 mph N/A   Clear
11:35 AM 37.4 °F 29.8 °F 17.6 °F 45% 30.35 in 10.0 mi NNW 11.5 mph 16.1 mph N/A   Clear
11:55 AM 37.4 °F 29.3 °F 17.6 °F 45% 30.35 in 10.0 mi North 12.7 mph - N/A   Clear
12:15 PM 41.0 °F 35.8 °F 17.6 °F 39% 30.35 in 10.0 mi North 8.1 mph - N/A   Clear
12:35 PM 41.0 °F 34.3 °F 17.6 °F 39% 30.34 in 10.0 mi NNW 11.5 mph - N/A   Clear
12:55 PM 41.0 °F 35.8 °F 15.8 °F 36% 30.34 in 10.0 mi NW 8.1 mph - N/A   Clear
1:15 PM 41.0 °F 33.9 °F 17.6 °F 39% 30.33 in 10.0 mi WNW 12.7 mph - N/A   Clear
1:35 PM 42.8 °F 38.0 °F 17.6 °F 36% 30.32 in 10.0 mi North 8.1 mph 16.1 mph N/A   Clear
1:55 PM 42.8 °F 36.6 °F 17.6 °F 36% 30.31 in 10.0 mi WNW 11.5 mph - N/A   Clear
2:15 PM 44.6 °F 40.2 °F 17.6 °F 34% 30.30 in 10.0 mi NW 8.1 mph 21.9 mph N/A   Clear
2:35 PM 42.8 °F 36.6 °F 17.6 °F 36% 30.29 in 10.0 mi NNW 11.5 mph - N/A   Clear
2:55 PM 42.8 °F 39.3 °F 17.6 °F 36% 30.29 in 10.0 mi NNW 5.8 mph - N/A   Clear
3:15 PM 44.6 °F 40.7 °F 17.6 °F 34% 30.27 in 10.0 mi North 6.9 mph - N/A   Clear
3:35 PM 44.6 °F 40.7 °F 17.6 °F 34% 30.28 in 10.0 mi North 6.9 mph - N/A   Clear
3:55 PM 44.6 °F 40.7 °F 17.6 °F 34% 30.28 in 10.0 mi NNW 6.9 mph - N/A   Clear
4:15 PM 44.6 °F 40.7 °F 17.6 °F 34% 30.27 in 10.0 mi NNE 6.9 mph - N/A   Clear
4:35 PM 44.6 °F 42.2 °F 17.6 °F 34% 30.27 in 10.0 mi NNE 4.6 mph - N/A   Clear
4:55 PM 42.8 °F 39.3 °F 17.6 °F 36% 30.26 in 10.0 mi NNE 5.8 mph - N/A   Clear
5:15 PM 42.8 °F 38.6 °F 17.6 °F 36% 30.26 in 10.0 mi North 6.9 mph - N/A   Clear
6:35 PM 37.4 °F 34.9 °F 17.6 °F 45% 30.27 in 10.0 mi East 3.5 mph - N/A   Clear
6:55 PM 37.4 °F 32.1 °F 15.8 °F 41% 30.27 in 10.0 mi ENE 6.9 mph - N/A   Clear
7:15 PM 35.6 °F 29.2 °F 15.8 °F 44% 30.26 in 10.0 mi ENE 8.1 mph - N/A   Clear
7:35 PM 35.6 °F 29.9 °F 14.0 °F 41% 30.27 in 10.0 mi ENE 6.9 mph - N/A   Clear
7:55 PM 33.8 °F 27.7 °F 14.0 °F 44% 30.25 in 10.0 mi ENE 6.9 mph - N/A   Clear
8:15 PM 33.8 °F 27.7 °F 15.8 °F 48% 30.26 in 10.0 mi ENE 6.9 mph - N/A   Clear
8:55 PM 32.0 °F - 14.0 °F 48% 30.29 in 10.0 mi Calm Calm - N/A   Clear
9:15 PM 32.0 °F 26.4 °F 17.6 °F 55% 30.29 in 10.0 mi ENE 5.8 mph - N/A   Clear
9:35 PM 32.0 °F 27.5 °F 17.6 °F 55% 30.28 in 10.0 mi NE 4.6 mph - N/A   Clear
9:55 PM 30.2 °F 24.3 °F 17.6 °F 60% 30.29 in 10.0 mi NE 5.8 mph - N/A   Clear
10:15 PM 30.2 °F 24.3 °F 19.4 °F 64% 30.29 in 10.0 mi NE 5.8 mph - N/A   Clear
10:35 PM 32.0 °F 26.4 °F 17.6 °F 55% 30.29 in 10.0 mi NE 5.8 mph - N/A   Clear
10:55 PM 32.0 °F 27.5 °F 17.6 °F 55% 30.29 in 10.0 mi NE 4.6 mph - N/A   Clear
11:15 PM 30.2 °F 26.7 °F 17.6 °F 60% 30.30 in 10.0 mi NE 3.5 mph - N/A   Clear
11:35 PM 30.2 °F 24.3 °F 17.6 °F 60% 30.30 in 10.0 mi NE 5.8 mph - N/A   Clear